Weather History for KMQB - June, 2013

Change the Weather History Date:

Wednesday, June 12, 2013

  Actual Average (KBRL) Record (KBRL)
Temperature  
Mean Temperature 84 °F 72 °F  
Max Temperature 97 °F 83 °F 95 °F (1987)
Min Temperature 72 °F 62 °F 40 °F (1903)
Degree Days  
Heating Degree Days 0 0  
Month to date heating degree days 9  
Since 1 June heating degree days 9  
Since 1 July heating degree days 5596  
Cooling Degree Days 20 8  
Month to date cooling degree days 79  
Year to date cooling degree days 182  
Since 1 June cooling degree days 79  
Growing Degree Days 34 (Base 50)    
Moisture  
Dew Point 69 °F    
Average Humidity 61    
Maximum Humidity 87    
Minimum Humidity 38    
Precipitation  
Precipitation 0.00 in 0.16 in - ()
Month to date precipitation 1.81  
Year to date precipitation 16.07  
Sea Level Pressure  
Sea Level Pressure 29.80 in    
Wind  
Wind Speed 10 mph (SW)    
Max Wind Speed 25 mph    
Max Gust Speed 32 mph    
Visibility 10 miles    
Events      
T = Trace of Precipitation, MM = Missing Value Source: NWS Daily Summary

Daily Weather History Graph

Daily Weather History Graph

Search for Another Location

Airport or City:

Trip Planner

Search our weather history database for the weather conditions in past years. The results will help you decide how hot, cold, wet, or windy it might be!

Date:

Astronomy

Jun. 12, 2013 Rise Set
Actual Time 5:31 AM CDT 8:33 PM CDT
Civil Twilight 4:58 AM CDT 9:06 PM CDT
Nautical Twilight 4:16 AM CDT 9:49 PM CDT
Astronomical Twilight 3:26 AM CDT 10:38 PM CDT
Moon 9:11 AM CDT (6/12) 11:08 PM CDT (6/12)
Length of Visible Light 16h 08m
Length of Day
15h 02m
Waxing Crescent, 14% of the Moon is Illuminated
Jun 12
Waxing Crescent
Jun 16
First Quarter
Jun 23
Full
Jun 29
Last Quarter
Jul 8
New

Hourly Weather History & Observations

Time (CDT) Temp. Heat Index Dew Point Humidity Pressure Visibility Wind Dir Wind Speed Gust Speed Precip Events Conditions
12:15 AM 78.3 °F - 68.9 °F 73% 29.88 in 10.0 mi SSW 6.9 mph - N/A   Clear
12:35 AM 77.9 °F - 68.9 °F 74% 29.88 in 10.0 mi SW 5.8 mph - N/A   Clear
12:55 AM 77.5 °F - 68.9 °F 75% 29.88 in 10.0 mi SSW 4.6 mph - N/A   Clear
1:15 AM 76.8 °F - 69.4 °F 78% 29.88 in 10.0 mi SW 4.6 mph - N/A   Clear
1:35 AM 75.2 °F - 69.3 °F 82% 29.88 in 10.0 mi SW 4.6 mph - N/A   Clear
1:55 AM 74.3 °F - 68.9 °F 83% 29.88 in 10.0 mi SW 4.6 mph - N/A   Clear
2:15 AM 74.3 °F - 69.4 °F 85% 29.89 in 10.0 mi SW 4.6 mph - N/A   Clear
2:35 AM 74.5 °F - 69.8 °F 85% 29.89 in 10.0 mi SW 4.6 mph - N/A   Clear
2:55 AM 74.3 °F - 69.4 °F 85% 29.89 in 10.0 mi SW 4.6 mph - N/A   Clear
3:15 AM 72.9 °F - 68.5 °F 86% 29.88 in 10.0 mi SSW 4.6 mph - N/A   Clear
3:35 AM 72.5 °F - 68.4 °F 87% 29.88 in 10.0 mi SSW 4.6 mph - N/A   Clear
3:55 AM 73.8 °F - 68.9 °F 85% 29.88 in 10.0 mi SSW 5.8 mph - N/A   Clear
4:15 AM 73.9 °F - 68.9 °F 84% 29.88 in 10.0 mi SSW 5.8 mph - N/A   Clear
4:35 AM 74.3 °F - 68.9 °F 83% 29.88 in 10.0 mi SSW 5.8 mph - N/A   Clear
4:55 AM 73.8 °F - 68.9 °F 85% 29.88 in 10.0 mi South 4.6 mph - N/A   Clear
5:15 AM 73.0 °F - 68.5 °F 86% 29.88 in 10.0 mi SSW 3.5 mph - N/A   Clear
5:35 AM 73.4 °F - 68.9 °F 86% 29.88 in 10.0 mi SSW 5.8 mph - N/A   Clear
5:55 AM 74.3 °F - 68.9 °F 83% 29.90 in 10.0 mi SSW 5.8 mph - N/A   Clear
6:15 AM 74.7 °F - 69.1 °F 83% 29.91 in 10.0 mi SSW 3.5 mph - N/A   Clear
6:35 AM 75.2 °F - 69.3 °F 82% 29.92 in 10.0 mi SW 3.5 mph - N/A   Clear
6:55 AM 76.3 °F - 69.1 °F 78% 29.92 in 10.0 mi SSW 6.9 mph - N/A   Clear
7:15 AM 77.5 °F - 68.9 °F 75% 29.92 in 10.0 mi SSW 8.1 mph - N/A   Clear
7:35 AM 78.8 °F - 69.3 °F 72% 29.92 in 10.0 mi SSW 8.1 mph - N/A   Clear
7:55 AM 79.3 °F - 69.6 °F 72% 29.91 in 10.0 mi SSW 8.1 mph - N/A   Clear
8:15 AM 80.4 °F 83.6 °F 70.0 °F 70% 29.90 in 10.0 mi SSW 6.9 mph - N/A   Clear
8:35 AM 82.0 °F 85.9 °F 70.0 °F 67% 29.91 in 10.0 mi SW 6.9 mph - N/A   Clear
8:55 AM 82.6 °F 86.6 °F 70.0 °F 66% 29.90 in 10.0 mi SSW 6.9 mph - N/A   Clear
9:15 AM 83.8 °F 88.1 °F 70.2 °F 63% 29.91 in 10.0 mi SSW 6.9 mph - N/A   Clear
9:35 AM 85.3 °F 89.4 °F 69.6 °F 59% 29.90 in 10.0 mi SSW 9.2 mph - N/A   Clear
9:55 AM 86.5 °F 91.0 °F 69.6 °F 57% 29.88 in 10.0 mi South 8.1 mph - N/A   Clear
10:15 AM 87.3 °F 91.6 °F 69.3 °F 55% 29.85 in 10.0 mi South 11.5 mph - N/A   Clear
10:35 AM 86.9 °F 90.6 °F 68.5 °F 54% 29.83 in 10.0 mi South 12.7 mph - N/A   Clear
10:55 AM 88.2 °F 92.5 °F 69.3 °F 53% 29.81 in 10.0 mi South 17.3 mph 23.0 mph N/A   Clear
11:15 AM 89.2 °F 94.5 °F 69.8 °F 53% 29.82 in 10.0 mi South 18.4 mph 24.2 mph N/A   Clear
11:35 AM 90.3 °F 96.2 °F 70.5 °F 52% 29.82 in 10.0 mi South 17.3 mph 23.0 mph N/A   Clear
11:55 AM 90.5 °F 96.0 °F 70.0 °F 51% 29.80 in 10.0 mi SSW 15.0 mph 25.3 mph N/A   Clear
12:15 PM 92.3 °F 98.1 °F 69.8 °F 48% 29.78 in 10.0 mi SSW 19.6 mph 24.2 mph N/A   Clear
12:35 PM 93.0 °F 98.4 °F 69.3 °F 46% 29.78 in 10.0 mi SSW 17.3 mph 25.3 mph N/A   Clear
12:55 PM 93.7 °F 98.8 °F 68.7 °F 44% 29.77 in 10.0 mi SSW 18.4 mph 25.3 mph N/A   Clear
1:15 PM 94.8 °F 99.8 °F 68.7 °F 42% 29.77 in 10.0 mi SSW 16.1 mph 26.5 mph N/A   Clear
1:35 PM 95.9 °F 101.9 °F 69.1 °F 42% 29.75 in 10.0 mi South 16.1 mph 19.6 mph N/A   Clear
1:55 PM 96.3 °F 100.2 °F 66.9 °F 38% 29.75 in 10.0 mi SSW 20.7 mph 25.3 mph N/A   Clear
2:15 PM 96.4 °F 101.1 °F 68.0 °F 39% 29.75 in 10.0 mi SW 13.8 mph 25.3 mph N/A   Clear
2:35 PM 97.2 °F 102.5 °F 68.4 °F 39% 29.75 in 10.0 mi SW 17.3 mph 25.3 mph N/A   Clear
2:55 PM 97.0 °F 102.2 °F 68.5 °F 39% 29.75 in 10.0 mi SSW 20.7 mph - N/A   Scattered Clouds
3:15 PM 95.9 °F 101.9 °F 69.3 °F 42% 29.74 in 10.0 mi SW 15.0 mph 25.3 mph N/A   Mostly Cloudy
3:35 PM 95.5 °F 100.6 °F 68.4 °F 41% 29.74 in 10.0 mi WSW 19.6 mph 26.5 mph N/A   Mostly Cloudy
3:55 PM 95.2 °F 99.9 °F 67.8 °F 41% 29.73 in 10.0 mi SW 15.0 mph 20.7 mph N/A   Scattered Clouds
4:15 PM 96.3 °F 100.8 °F 67.6 °F 39% 29.72 in 10.0 mi SW 18.4 mph 26.5 mph N/A   Scattered Clouds
4:35 PM 95.9 °F 100.7 °F 67.8 °F 40% 29.71 in 10.0 mi SW 17.3 mph 27.6 mph N/A   Scattered Clouds
4:55 PM 95.0 °F 99.0 °F 67.1 °F 40% 29.70 in 10.0 mi SW 21.9 mph 27.6 mph N/A   Scattered Clouds
5:15 PM 93.9 °F 98.0 °F 67.6 °F 42% 29.70 in 10.0 mi WSW 19.6 mph 27.6 mph N/A   Mostly Cloudy
5:35 PM 94.5 °F 99.1 °F 68.4 °F 42% 29.69 in 10.0 mi WSW 19.6 mph 27.6 mph N/A   Scattered Clouds
5:55 PM 95.0 °F 99.5 °F 68.2 °F 41% 29.68 in 10.0 mi WSW 19.6 mph 31.1 mph N/A   Clear
6:15 PM 94.5 °F 99.1 °F 68.2 °F 42% 29.67 in 10.0 mi WSW 20.7 mph 29.9 mph N/A   Scattered Clouds
6:35 PM 93.6 °F 99.0 °F 69.1 °F 45% 29.67 in 10.0 mi WSW 17.3 mph 26.5 mph N/A   Scattered Clouds
6:55 PM 92.7 °F 97.2 °F 68.7 °F 45% 29.67 in 10.0 mi West 21.9 mph 26.5 mph N/A   Scattered Clouds
7:15 PM 91.9 °F 96.4 °F 68.5 °F 46% 29.68 in 10.0 mi West 24.2 mph 32.2 mph N/A   Scattered Clouds
7:35 PM 91.4 °F 96.3 °F 68.9 °F 48% 29.68 in 10.0 mi West 18.4 mph - N/A   Clear
7:55 PM 90.5 °F 95.1 °F 68.7 °F 49% 29.68 in 10.0 mi West 19.6 mph 31.1 mph N/A   Clear
8:15 PM 89.6 °F 93.9 °F 68.9 °F 50% 29.68 in 10.0 mi West 20.7 mph 26.5 mph N/A   Clear
8:35 PM 88.7 °F 92.6 °F 68.7 °F 51% 29.69 in 10.0 mi West 16.1 mph - N/A   Clear
8:55 PM 87.6 °F 91.9 °F 68.9 °F 54% 29.69 in 10.0 mi West 13.8 mph - N/A   Clear
9:15 PM 86.9 °F 91.0 °F 69.1 °F 55% 29.70 in 10.0 mi West 11.5 mph - N/A   Clear
9:35 PM 86.2 °F 90.7 °F 69.6 °F 58% 29.70 in 10.0 mi West 11.5 mph - N/A   Clear
9:55 PM 85.3 °F 89.8 °F 70.0 °F 60% 29.70 in 10.0 mi WSW 11.5 mph - N/A   Scattered Clouds
10:15 PM 85.8 °F 90.4 °F 70.0 °F 59% 29.71 in 10.0 mi West 13.8 mph 17.3 mph N/A   Mostly Cloudy
10:35 PM 85.3 °F 89.1 °F 68.9 °F 58% 29.73 in 10.0 mi NW 21.9 mph 32.2 mph N/A   Overcast
10:55 PM 83.3 °F 86.9 °F 68.9 °F 62% 29.74 in 10.0 mi WNW 18.4 mph 24.2 mph N/A   Scattered Clouds
11:15 PM 81.5 °F 84.4 °F 68.4 °F 64% 29.75 in 10.0 mi NW 18.4 mph 31.1 mph N/A   Scattered Clouds
11:35 PM 79.7 °F - 67.5 °F 66% 29.75 in 10.0 mi WNW 23.0 mph 27.6 mph N/A   Scattered Clouds
11:55 PM 78.1 °F - 64.4 °F 63% 29.76 in 10.0 mi WNW 25.3 mph 32.2 mph N/A   Clear